Location: Beugnon
(47.6222°N, 3.7850°E)
Time: 15:53:31
(UTC+00:00)

Cosmos 2369 - Pass Details

Date: 09 April 2020
Orbit: 840 x 855 km, 71.0° (Epoch: 28 May)

Event Time Altitude Azimuth Distance (km) Brightness Sun altitude
Rises 21:06:11 0° 333° (NNW) 3,406 8.1 -24.1°
Reaches altitude 10° 21:08:38 10° 335° (NNW) 2,467 7.1 -24.4°
Maximum altitude 21:14:18 75° 61° (ENE) 875 3.6 -25.0°
Enters shadow 21:14:58 66° 113° (ESE) 915 3.6 -25.1°
